Нововятск

Россия / Кировская область     58°30′31″N   49°35′40″E
темп.,
°C
ветер,
м/с
пор.,
м/с
влажн.,
%
обл.,
%
осадки,
мм/ч
давл.,
гПа
погр.,
м
10 апреля, сб
сб1000:00−1юз239510 0.0 102848
03:00−2ююз229518 0.0 102915
06:00−4ю119720 0.0 103132
09:00+3ю239231 0.0 1032287
12:00+6ююв237726 0.0 1031710
15:00+5юв3481100 0.0 1030483
18:00+2юв2595100 0.0 1030147
21:00+1юв2599100 0.0 1029177
11 апреля, вс
вс1100:00+1юз0098100 0.0 102716
03:00+1сз2296100 0.1 102863
06:00+1зсз128980 0.0 102889
09:00+3з23785 0.0 1029393
12:00+7зюз35620 0.0 1029641
15:00+8зюз35622 0.0 1030772
18:00+6зюз2283100 0.0 103224
21:00+3з2290100 0.0 103328
12 апреля, пн
пн1200:00+2юз2493100 0.0 103554
03:00+3юз2392100 0.0 103650
06:00+3ссз0193100 0.0 103712
09:00+7вюв117650 0.0 1038298
12:00+11ююв22615 0.0 1037821
15:00+12ю2257100 0.0 10371232
18:00+9ююв3576100 0.0 1036132
21:00+6ююв3486100 0.0 103770
13 апреля, вт
вт1300:00+5ююв3590100 0.0 1036108
03:00+4юв3693100 0.0 1035124
06:00+4юв378899 0.0 1034191
09:00+8ююв4680100 0.0 1033308
12:00+13ю4669100 0.0 1031641
15:00+16ююз476276 0.0 1029991
18:00+13ю387799 0.0 1028190
21:00+10ю4118996 0.0 1028216
14 апреля, ср
ср1400:00+8ююз3108998 0.0 1027195
03:00+6ююз368744 0.0 1027106
06:00+6юз37855 0.0 1027153
09:00+13юз46605 0.0 1026382
12:00+17юз46465 0.0 1025949
15:00+18юз464147 0.0 10241335
18:00+15ююз3558100 0.0 102385
21:00+11ююз3972100 0.0 1023143